Location: *
(17.3280°S, 114.7300°W)
Time: 15:44:17
(UTC+00:00)

Hubble Space Telescope - Pass Details

Date: 02 November 2020
Orbit: 536 x 540 km, 28.5° (Epoch: 29 November)

Event Time Altitude Azimuth Distance (km) Brightness Sun altitude
Rises 02:28:59 0° 318° (NW) 2,661 4.6 -10.8°
Reaches altitude 10° 02:31:27 10° 329° (NNW) 1,775 3.6 -11.4°
Maximum altitude 02:35:01 28° 29° (NNE) 1,014 1.8 -12.2°
Enters shadow 02:36:56 20° 72° (ENE) 1,288 2.0 -12.6°
